| time (UTC) | temp F | wind direction | speed knots | gust knots | rain 1hr in | rain 24hr in | rain mn in | humidity % | barometer mb |
| 20260505035359 | 43 | 225 | 0.0 | 0.0 | 0.00 | 0.00 | 0.00 | 77 | 1003.9 |
| 20260505035327 | 43 | 225 | 0.0 | 0.0 | 0.00 | 0.00 | 0.00 | 77 | 1003.9 |
| 20260505034824 | 43 | 225 | 0.0 | 0.0 | 0.00 | 0.00 | 0.00 | 75 | 1004.1 |
| 20260505034400 | 43 | 225 | 0.0 | 0.0 | 0.00 | 0.00 | 0.00 | 74 | 1004.1 |
| 20260505034322 | 43 | 225 | 0.0 | 0.0 | 0.00 | 0.00 | 0.00 | 74 | 1004.1 |
| 20260505033820 | 43 | 225 | 0.0 | 0.9 | 0.00 | 0.00 | 0.00 | 74 | 1004.0 |
| 20260505032853 | 44 | 225 | 0.0 | 0.9 | 0.00 | 0.00 | 0.00 | 75 | 1003.9 |
| 20260505032815 | 44 | 225 | 0.0 | 0.9 | 0.00 | 0.00 | 0.00 | 75 | 1003.9 |
| 20260505032348 | 44 | 225 | 0.9 | 0.9 | 0.00 | 0.00 | 0.00 | 73 | 1003.9 |
| 20260505032313 | 44 | 225 | 0.9 | 0.9 | 0.00 | 0.00 | 0.00 | 73 | 1003.9 |
| 20260505031811 | 44 | 225 | 0.0 | 0.0 | 0.00 | 0.00 | 0.00 | 75 | 1004.0 |
| 20260505031344 | 44 | 225 | 0.0 | 0.0 | 0.00 | 0.00 | 0.00 | 75 | 1003.7 |
| 20260505031309 | 44 | 225 | 0.0 | 0.0 | 0.00 | 0.00 | 0.00 | 75 | 1003.7 |
| 20260505030806 | 44 | 225 | 0.0 | 0.9 | 0.00 | 0.00 | 0.00 | 75 | 1003.8 |
| 20260505030305 | 44 | 225 | 0.0 | 0.0 | 0.00 | 0.00 | 0.00 | 75 | 1004.0 |
| 20260505025927 | 44 | 236 | 0.0 | 0.0 | 0.00 | 0.00 | 0.00 | 75 | 1003.8 |
| 20260505025840 | 44 | 236 | 0.0 | 0.0 | 0.00 | 0.00 | 0.00 | 75 | 1003.8 |
| 20260505025337 | 44 | 225 | 0.0 | 0.9 | 0.00 | 0.00 | 0.00 | 73 | 1004.0 |
| 20260505024835 | 44 | 225 | 0.0 | 0.9 | 0.00 | 0.00 | 0.00 | 73 | 1003.8 |
| 20260505024333 | 45 | 225 | 0.0 | 0.0 | 0.00 | 0.00 | 0.00 | 73 | 1003.9 |
| 20260505023831 | 45 | 225 | 0.0 | 0.0 | 0.00 | 0.00 | 0.00 | 73 | 1003.8 |
| 20260505023328 | 45 | 225 | 0.0 | 0.0 | 0.00 | 0.00 | 0.00 | 73 | 1004.1 |
| 20260505022827 | 45 | 225 | 0.0 | 0.0 | 0.00 | 0.00 | 0.00 | 72 | 1004.1 |
| 20260505022324 | 45 | 225 | 0.0 | 0.0 | 0.00 | 0.00 | 0.00 | 72 | 1004.0 |
| 20260505021938 | 45 | 225 | 0.0 | 0.9 | 0.00 | 0.00 | 0.00 | 72 | 1004.2 |
| 20260505021822 | 45 | 225 | 0.0 | 0.9 | 0.00 | 0.00 | 0.00 | 72 | 1004.2 |
| 20260505021319 | 45 | 225 | 0.0 | 0.0 | 0.00 | 0.00 | 0.00 | 73 | 1004.0 |
| 20260505020818 | 45 | 225 | 0.0 | 0.9 | 0.00 | 0.00 | 0.00 | 74 | 1004.2 |
| 20260505020315 | 45 | 225 | 0.9 | 1.7 | 0.00 | 0.00 | 0.00 | 73 | 1004.1 |
| 20260505015858 | 45 | 225 | 0.0 | 0.0 | 0.00 | 0.00 | 0.00 | 75 | 1004.1 |
| 20260505015814 | 45 | 225 | 0.0 | 0.0 | 0.00 | 0.00 | 0.00 | 75 | 1004.1 |
| 20260505015407 | 45 | 225 | 0.0 | 0.0 | 0.00 | 0.00 | 0.00 | 74 | 1004.0 |
| 20260505015311 | 45 | 225 | 0.0 | 0.0 | 0.00 | 0.00 | 0.00 | 74 | 1004.0 |
| 20260505014809 | 45 | 180 | 1.7 | 2.6 | 0.00 | 0.00 | 0.00 | 71 | 1004.1 |
| 20260505014307 | 45 | 225 | 0.0 | 0.0 | 0.00 | 0.00 | 0.00 | 74 | 1004.0 |
| 20260505013847 | 45 | 225 | 0.0 | 0.9 | 0.00 | 0.00 | 0.00 | 74 | 1004.3 |
| 20260505013805 | 45 | 225 | 0.0 | 0.9 | 0.00 | 0.00 | 0.00 | 74 | 1004.3 |
| 20260505013356 | 45 | 225 | 0.0 | 0.0 | 0.00 | 0.00 | 0.00 | 72 | 1004.3 |
| 20260505013302 | 45 | 225 | 0.0 | 0.0 | 0.00 | 0.00 | 0.00 | 72 | 1004.3 |
| 20260505012905 | 45 | 225 | 0.0 | 0.9 | 0.00 | 0.00 | 0.00 | 71 | 1004.4 |
| 20260505012800 | 45 | 225 | 0.0 | 0.9 | 0.00 | 0.00 | 0.00 | 71 | 1004.4 |
| 20260505012258 | 45 | 225 | 0.0 | 0.0 | 0.00 | 0.00 | 0.00 | 71 | 1004.5 |
| 20260505011840 | 45 | 225 | 0.0 | 0.0 | 0.00 | 0.00 | 0.00 | 71 | 1004.5 |
| 20260505011756 | 45 | 225 | 0.0 | 0.0 | 0.00 | 0.00 | 0.00 | 71 | 1004.5 |
| 20260505011326 | 45 | 236 | 0.0 | 0.0 | 0.00 | 0.00 | 0.00 | 72 | 1004.5 |
| 20260505011253 | 45 | 236 | 0.0 | 0.0 | 0.00 | 0.00 | 0.00 | 72 | 1004.5 |
| 20260505010910 | 45 | 225 | 0.0 | 0.0 | 0.00 | 0.00 | 0.00 | 71 | 1004.6 |
| 20260505010752 | 45 | 225 | 0.0 | 0.0 | 0.00 | 0.00 | 0.00 | 71 | 1004.6 |
| 20260505010249 | 46 | 225 | 0.0 | 0.0 | 0.00 | 0.00 | 0.00 | 69 | 1004.5 |
| 20260505005747 | 46 | 225 | 0.0 | 0.0 | 0.00 | 0.00 | 0.00 | 71 | 1004.8 |
| 20260505005245 | 46 | 225 | 0.0 | 0.0 | 0.00 | 0.00 | 0.00 | 70 | 1004.7 |
| 20260505004857 | 46 | 225 | 0.0 | 0.0 | 0.00 | 0.00 | 0.00 | 72 | 1004.7 |
| 20260505004743 | 46 | 225 | 0.0 | 0.0 | 0.00 | 0.00 | 0.00 | 72 | 1004.7 |
| 20260505004240 | 46 | 225 | 0.0 | 0.0 | 0.00 | 0.00 | 0.00 | 69 | 1004.6 |
| 20260505003739 | 46 | 225 | 0.0 | 0.0 | 0.00 | 0.00 | 0.00 | 69 | 1004.9 |
| 20260505003236 | 46 | 225 | 0.0 | 0.9 | 0.00 | 0.00 | 0.00 | 69 | 1004.8 |
| 20260505002811 | 46 | 225 | 0.0 | 0.0 | 0.00 | 0.00 | 0.00 | 73 | 1004.9 |
| 20260505002734 | 46 | 225 | 0.0 | 0.0 | 0.00 | 0.00 | 0.00 | 73 | 1004.9 |
| 20260505002309 | 46 | 225 | 0.0 | 0.9 | 0.00 | 0.00 | 0.00 | 69 | 1005.0 |
| 20260505002232 | 46 | 225 | 0.0 | 0.9 | 0.00 | 0.00 | 0.00 | 69 | 1005.0 |
| 20260505001816 | 46 | 225 | 0.0 | 0.0 | 0.00 | 0.00 | 0.00 | 68 | 1005.0 |
| 20260505001730 | 46 | 225 | 0.0 | 0.0 | 0.00 | 0.00 | 0.00 | 68 | 1005.0 |
| 20260505001309 | 47 | 180 | 0.0 | 0.0 | 0.00 | 0.00 | 0.00 | 70 | 1004.9 |
| 20260505001227 | 47 | 180 | 0.0 | 0.0 | 0.00 | 0.00 | 0.00 | 70 | 1004.9 |
| 20260505000835 | 47 | 180 | 0.0 | 0.0 | 0.00 | 0.00 | 0.00 | 68 | 1004.9 |
| 20260505000726 | 47 | 180 | 0.0 | 0.0 | 0.00 | 0.00 | 0.00 | 68 | 1004.9 |
| 20260505000331 | 47 | 225 | 0.0 | 0.9 | 0.00 | 0.00 | 0.00 | 68 | 1004.9 |
| 20260505000223 | 47 | 225 | 0.0 | 0.9 | 0.00 | 0.00 | 0.00 | 68 | 1004.9 |
| 20260504235815 | 47 | 180 | 0.0 | 0.9 | 0.00 | 0.00 | 0.00 | 68 | 1005.1 |
| 20260504235721 | 47 | 180 | 0.0 | 0.9 | 0.00 | 0.00 | 0.00 | 68 | 1005.1 |
| 20260504235219 | 47 | 225 | 0.0 | 0.9 | 0.00 | 0.00 | 0.00 | 67 | 1005.3 |
| 20260504234800 | 47 | 225 | 0.9 | 1.7 | 0.00 | 0.00 | 0.00 | 66 | 1005.3 |
| 20260504234717 | 47 | 225 | 0.9 | 1.7 | 0.00 | 0.00 | 0.00 | 66 | 1005.3 |
| 20260504234214 | 47 | 225 | 0.0 | 0.9 | 0.00 | 0.00 | 0.00 | 68 | 1005.3 |
| 20260504233819 | 47 | 270 | 0.9 | 0.9 | 0.00 | 0.00 | 0.00 | 67 | 1005.2 |
| 20260504233713 | 47 | 270 | 0.9 | 0.9 | 0.00 | 0.00 | 0.00 | 67 | 1005.2 |
| 20260504233250 | 47 | 315 | 0.0 | 0.9 | 0.00 | 0.00 | 0.00 | 66 | 1005.4 |
| 20260504233210 | 47 | 315 | 0.0 | 0.9 | 0.00 | 0.00 | 0.00 | 66 | 1005.4 |
| 20260504232817 | 48 | 225 | 0.0 | 0.9 | 0.00 | 0.00 | 0.00 | 65 | 1005.3 |
| 20260504232708 | 48 | 225 | 0.0 | 0.9 | 0.00 | 0.00 | 0.00 | 65 | 1005.3 |
| 20260504232206 | 48 | 225 | 0.0 | 0.0 | 0.00 | 0.00 | 0.00 | 66 | 1005.2 |
| 20260504231803 | 48 | 45 | 0.0 | 0.9 | 0.00 | 0.00 | 0.00 | 65 | 1005.3 |
| 20260504231704 | 48 | 45 | 0.0 | 0.9 | 0.00 | 0.00 | 0.00 | 65 | 1005.3 |
| 20260504230759 | 48 | 180 | 0.0 | 0.9 | 0.00 | 0.00 | 0.00 | 67 | 1005.3 |
| 20260504230659 | 48 | 180 | 0.0 | 0.9 | 0.00 | 0.00 | 0.00 | 67 | 1005.3 |
| 20260504230157 | 48 | 180 | 0.0 | 0.9 | 0.00 | 0.00 | 0.00 | 67 | 1005.3 |
| 20260504225740 | 48 | 315 | 0.0 | 0.9 | 0.00 | 0.00 | 0.00 | 65 | 1005.2 |
| 20260504225655 | 48 | 315 | 0.0 | 0.9 | 0.00 | 0.00 | 0.00 | 65 | 1005.2 |
| 20260504225224 | 48 | 247 | 0.0 | 0.9 | 0.00 | 0.00 | 0.00 | 64 | 1005.1 |
| 20260504225152 | 48 | 247 | 0.0 | 0.9 | 0.00 | 0.00 | 0.00 | 64 | 1005.1 |
| 20260504224725 | 49 | 180 | 0.0 | 0.0 | 0.00 | 0.00 | 0.00 | 64 | 1005.2 |
| 20260504224651 | 49 | 180 | 0.0 | 0.0 | 0.00 | 0.00 | 0.00 | 64 | 1005.2 |
| 20260504224228 | 49 | 135 | 0.9 | 0.9 | 0.00 | 0.00 | 0.00 | 64 | 1005.2 |
| 20260504224148 | 49 | 135 | 0.9 | 0.9 | 0.00 | 0.00 | 0.00 | 64 | 1005.2 |
| 20260504223732 | 49 | 22 | 0.0 | 0.9 | 0.00 | 0.00 | 0.00 | 65 | 1005.1 |
| 20260504223646 | 49 | 22 | 0.0 | 0.9 | 0.00 | 0.00 | 0.00 | 65 | 1005.1 |
| 20260504223223 | 50 | 78 | 0.0 | 0.9 | 0.00 | 0.00 | 0.00 | 66 | 1005.1 |
| 20260504223144 | 50 | 78 | 0.0 | 0.9 | 0.00 | 0.00 | 0.00 | 66 | 1005.1 |
| 20260504222642 | 50 | 225 | 0.0 | 0.0 | 0.00 | 0.00 | 0.00 | 62 | 1005.1 |
| 20260504222139 | 50 | 180 | 0.0 | 0.9 | 0.00 | 0.00 | 0.00 | 61 | 1005.3 |
| 20260504221711 | 50 | 225 | 0.0 | 0.9 | 0.00 | 0.00 | 0.00 | 62 | 1005.1 |
| 20260504221638 | 50 | 225 | 0.0 | 0.9 | 0.00 | 0.00 | 0.00 | 62 | 1005.1 |
| 20260504221135 | 50 | 270 | 0.9 | 0.9 | 0.00 | 0.00 | 0.00 | 62 | 1005.1 |
| 20260504220713 | 50 | 270 | 0.9 | 0.9 | 0.00 | 0.00 | 0.00 | 63 | 1005.1 |
| 20260504220633 | 50 | 270 | 0.9 | 0.9 | 0.00 | 0.00 | 0.00 | 63 | 1005.1 |
| 20260504220131 | 51 | 270 | 0.0 | 1.7 | 0.00 | 0.00 | 0.00 | 63 | 1005.1 |
| 20260504215629 | 51 | 270 | 1.7 | 2.6 | 0.00 | 0.00 | 0.00 | 63 | 1005.1 |
| 20260504215126 | 51 | 270 | 1.7 | 2.6 | 0.00 | 0.00 | 0.00 | 62 | 1005.2 |
| 20260504214122 | 51 | 270 | 1.7 | 2.6 | 0.00 | 0.00 | 0.00 | 62 | 1005.1 |
| 20260504213712 | 51 | 303 | 0.9 | 2.6 | 0.00 | 0.00 | 0.00 | 61 | 1005.1 |
| 20260504213620 | 51 | 303 | 0.9 | 2.6 | 0.00 | 0.00 | 0.00 | 61 | 1005.1 |
| 20260504213118 | 51 | 315 | 0.9 | 2.6 | 0.00 | 0.00 | 0.00 | 61 | 1005.1 |
| 20260504212721 | 51 | 337 | 2.6 | 2.6 | 0.00 | 0.00 | 0.00 | 62 | 1005.1 |
| 20260504212616 | 51 | 337 | 2.6 | 2.6 | 0.00 | 0.00 | 0.00 | 62 | 1005.1 |
| 20260504212113 | 51 | 270 | 1.7 | 3.5 | 0.00 | 0.00 | 0.00 | 61 | 1005.0 |
| 20260504211612 | 51 | 292 | 1.7 | 1.7 | 0.00 | 0.00 | 0.00 | 60 | 1005.1 |
| 20260504211109 | 51 | 90 | 0.0 | 0.9 | 0.00 | 0.00 | 0.00 | 60 | 1005.0 |
| 20260504210105 | 52 | 202 | 0.0 | 1.7 | 0.00 | 0.00 | 0.00 | 59 | 1005.0 |
| 20260504205603 | 52 | 247 | 0.0 | 1.7 | 0.00 | 0.00 | 0.00 | 59 | 1005.1 |
| 20260504205144 | 52 | 0 | 0.0 | 2.6 | 0.00 | 0.00 | 0.00 | 59 | 1005.0 |
| 20260504205100 | 52 | 0 | 0.0 | 2.6 | 0.00 | 0.00 | 0.00 | 59 | 1005.0 |
| 20260504204641 | 52 | 0 | 0.9 | 2.6 | 0.00 | 0.00 | 0.00 | 59 | 1004.8 |
| 20260504204559 | 52 | 0 | 0.9 | 2.6 | 0.00 | 0.00 | 0.00 | 59 | 1004.8 |
| 20260504204056 | 52 | 270 | 2.6 | 3.5 | 0.00 | 0.00 | 0.00 | 58 | 1004.8 |
| 20260504203643 | 52 | 270 | 0.9 | 2.6 | 0.00 | 0.00 | 0.00 | 59 | 1004.7 |
| 20260504203554 | 52 | 270 | 0.9 | 2.6 | 0.00 | 0.00 | 0.00 | 59 | 1004.7 |
| 20260504203051 | 52 | 225 | 0.9 | 1.7 | 0.00 | 0.00 | 0.00 | 58 | 1004.6 |
| 20260504202550 | 53 | 247 | 0.0 | 0.9 | 0.00 | 0.00 | 0.00 | 58 | 1004.6 |
| 20260504202047 | 53 | 146 | 0.0 | 2.6 | 0.00 | 0.00 | 0.00 | 58 | 1004.5 |
| 20260504201545 | 53 | 225 | 0.0 | 2.6 | 0.00 | 0.00 | 0.00 | 58 | 1004.5 |
| 20260504201043 | 53 | 67 | 0.9 | 2.6 | 0.00 | 0.00 | 0.00 | 56 | 1004.4 |
| 20260504200641 | 53 | 45 | 0.9 | 2.6 | 0.00 | 0.00 | 0.00 | 57 | 1004.4 |
| 20260504200541 | 53 | 45 | 0.9 | 2.6 | 0.00 | 0.00 | 0.00 | 57 | 1004.4 |
| 20260504200038 | 54 | 45 | 0.9 | 3.5 | 0.00 | 0.00 | 0.00 | 54 | 1004.3 |
| 20260504195621 | 54 | 101 | 0.0 | 3.5 | 0.00 | 0.00 | 0.00 | 55 | 1004.3 |
| 20260504195537 | 54 | 101 | 0.0 | 3.5 | 0.00 | 0.00 | 0.00 | 55 | 1004.3 |
| 20260504195034 | 54 | 270 | 2.6 | 3.5 | 0.00 | 0.00 | 0.00 | 53 | 1004.2 |
| 20260504194532 | 54 | 0 | 2.6 | 4.3 | 0.00 | 0.00 | 0.00 | 53 | 1004.1 |
| 20260504194030 | 55 | 45 | 1.7 | 3.5 | 0.00 | 0.00 | 0.00 | 51 | 1003.9 |
| 20260504193619 | 55 | 337 | 7.0 | 8.7 | 0.00 | 0.00 | 0.00 | 51 | 1003.9 |
| 20260504193528 | 55 | 337 | 7.0 | 8.7 | 0.00 | 0.00 | 0.00 | 51 | 1003.9 |
| 20260504193025 | 55 | 247 | 2.6 | 5.2 | 0.00 | 0.00 | 0.00 | 49 | 1003.8 |
| 20260504192524 | 55 | 22 | 2.6 | 6.1 | 0.00 | 0.00 | 0.00 | 48 | 1003.8 |
| 20260504192021 | 56 | 45 | 1.7 | 6.1 | 0.00 | 0.00 | 0.00 | 45 | 1004.0 |
| 20260504191550 | 56 | 247 | 2.6 | 7.0 | 0.00 | 0.00 | 0.00 | 43 | 1003.9 |
| 20260504191519 | 56 | 247 | 2.6 | 7.0 | 0.00 | 0.00 | 0.00 | 43 | 1003.9 |
| 20260504191017 | 57 | 67 | 5.2 | 5.2 | 0.00 | 0.00 | 0.00 | 41 | 1003.7 |
| 20260504190554 | 57 | 270 | 0.9 | 3.5 | 0.00 | 0.00 | 0.00 | 41 | 1003.6 |
| 20260504190515 | 57 | 270 | 0.9 | 3.5 | 0.00 | 0.00 | 0.00 | 41 | 1003.6 |
| 20260504190047 | 58 | 45 | 1.7 | 7.8 | 0.00 | 0.00 | 0.00 | 43 | 1003.6 |
| 20260504190012 | 58 | 45 | 1.7 | 7.8 | 0.00 | 0.00 | 0.00 | 43 | 1003.6 |
| 20260504185511 | 58 | 101 | 1.7 | 5.2 | 0.00 | 0.00 | 0.00 | 41 | 1003.8 |
| 20260504185104 | 58 | 281 | 2.6 | 6.1 | 0.00 | 0.00 | 0.00 | 40 | 1003.6 |
| 20260504185008 | 58 | 281 | 2.6 | 6.1 | 0.00 | 0.00 | 0.00 | 40 | 1003.6 |
| 20260504184506 | 58 | 315 | 4.3 | 4.3 | 0.00 | 0.00 | 0.00 | 39 | 1003.5 |
| 20260504184004 | 59 | 56 | 6.1 | 6.1 | 0.00 | 0.00 | 0.00 | 39 | 1003.4 |
| 20260504183543 | 59 | 67 | 3.5 | 7.0 | 0.00 | 0.00 | 0.00 | 39 | 1003.4 |
| 20260504183502 | 59 | 67 | 3.5 | 7.0 | 0.00 | 0.00 | 0.00 | 39 | 1003.4 |
| 20260504182959 | 59 | 0 | 3.5 | 6.1 | 0.00 | 0.00 | 0.00 | 37 | 1003.4 |
| 20260504182458 | 59 | 22 | 6.1 | 8.7 | 0.00 | 0.00 | 0.00 | 36 | 1003.4 |
| 20260504182034 | 60 | 112 | 3.5 | 6.1 | 0.00 | 0.00 | 0.00 | 36 | 1003.4 |
| 20260504181955 | 60 | 112 | 3.5 | 6.1 | 0.00 | 0.00 | 0.00 | 36 | 1003.4 |
| 20260504181453 | 60 | 135 | 3.5 | 7.0 | 0.00 | 0.00 | 0.00 | 35 | 1003.2 |
| 20260504180950 | 60 | 11 | 1.7 | 7.8 | 0.00 | 0.00 | 0.00 | 35 | 1003.4 |
| 20260504180531 | 60 | 22 | 1.7 | 6.1 | 0.00 | 0.00 | 0.00 | 36 | 1003.2 |
| 20260504175946 | 60 | 90 | 3.5 | 7.0 | 0.00 | 0.00 | 0.00 | 33 | 1003.3 |
| 20260504175444 | 60 | 22 | 4.3 | 6.1 | 0.00 | 0.00 | 0.00 | 33 | 1003.5 |
| 20260504173938 | 61 | 112 | 4.3 | 7.0 | 0.00 | 0.00 | 0.00 | 32 | 1003.3 |
| 20260504173519 | 61 | 45 | 4.3 | 8.7 | 0.00 | 0.00 | 0.00 | 32 | 1003.3 |
| 20260504173436 | 61 | 45 | 4.3 | 8.7 | 0.00 | 0.00 | 0.00 | 32 | 1003.3 |
| 20260504172933 | 62 | 281 | 1.7 | 7.8 | 0.00 | 0.00 | 0.00 | 32 | 1003.3 |
| 20260504172432 | 62 | 270 | 5.2 | 7.8 | 0.00 | 0.00 | 0.00 | 33 | 1003.2 |
| 20260504171929 | 61 | 45 | 3.5 | 6.1 | 0.00 | 0.00 | 0.00 | 31 | 1003.3 |
| 20260504171427 | 61 | 90 | 2.6 | 7.0 | 0.00 | 0.00 | 0.00 | 33 | 1003.2 |
| 20260504170924 | 62 | 67 | 6.1 | 7.8 | 0.00 | 0.00 | 0.00 | 32 | 1003.2 |
| 20260504170423 | 63 | 135 | 5.2 | 7.8 | 0.00 | 0.00 | 0.00 | 30 | 1003.3 |
| 20260504160438 | 62 | 225 | 2.6 | 8.7 | 0.00 | 0.00 | 0.00 | 34 | 1002.8 |
| 20260504160357 | 62 | 225 | 2.6 | 8.7 | 0.00 | 0.00 | 0.00 | 34 | 1002.8 |
| 20260504150832 | 65 | 315 | 4.3 | 9.6 | 0.00 | 0.00 | 0.00 | 27 | 1003.0 |
| 20260504150331 | 64 | 292 | 6.1 | 6.1 | 0.00 | 0.00 | 0.00 | 30 | 1003.0 |
| 20260504141309 | 63 | 90 | 5.2 | 6.1 | 0.00 | 0.00 | 0.00 | 32 | 1003.0 |
| 20260504140806 | 63 | 337 | 2.6 | 6.1 | 0.00 | 0.00 | 0.00 | 32 | 1003.1 |
| 20260504130821 | 63 | 90 | 0.9 | 5.2 | 0.00 | 0.00 | 0.00 | 35 | 1003.2 |
| 20260504130740 | 63 | 90 | 0.9 | 5.2 | 0.00 | 0.00 | 0.00 | 35 | 1003.2 |
| 20260504130238 | 64 | 22 | 3.5 | 4.3 | 0.00 | 0.00 | 0.00 | 33 | 1003.3 |
| 20260504120212 | 61 | 315 | 0.9 | 4.3 | 0.00 | 0.00 | 0.00 | 39 | 1003.8 |
| 20260504110645 | 60 | 292 | 3.5 | 9.6 | 0.00 | 0.00 | 0.00 | 45 | 1004.0 |
| 20260504110143 | 60 | 90 | 0.9 | 3.5 | 0.00 | 0.00 | 0.00 | 45 | 1003.8 |
| 20260504100203 | 58 | 270 | 1.7 | 4.3 | 0.00 | 0.00 | 0.00 | 53 | 1004.0 |
| 20260504100117 | 58 | 270 | 1.7 | 4.3 | 0.00 | 0.00 | 0.00 | 53 | 1004.0 |
| 20260504081651 | 56 | 135 | 0.9 | 0.9 | 0.00 | 0.00 | 0.00 | 65 | 1003.6 |
| 20260504081620 | 56 | 135 | 0.9 | 0.9 | 0.00 | 0.00 | 0.00 | 65 | 1003.6 |
| 20260504081449 | 56 | 270 | 2.6 | 4.3 | 0.00 | 0.00 | 0.00 | 66 | 1003.5 |
| 20260504081413 | 56 | 270 | 2.6 | 4.3 | 0.00 | 0.00 | 0.00 | 66 | 1003.5 |
| 20260504080910 | 55 | 135 | 0.9 | 5.2 | 0.00 | 0.00 | 0.00 | 67 | 1003.5 |
| 20260504080409 | 56 | 292 | 3.5 | 7.8 | 0.00 | 0.00 | 0.00 | 63 | 1003.5 |
| 20260504050442 | 47 | 315 | 0.0 | 0.0 | 0.00 | 0.00 | 0.00 | 81 | 1002.3 |
| 20260504050357 | 47 | 315 | 0.0 | 0.0 | 0.00 | 0.00 | 0.00 | 81 | 1002.3 |
| 20260504045854 | 47 | 180 | 0.0 | 0.0 | 0.00 | 0.00 | 0.00 | 80 | 1002.2 |
| 20260504045352 | 47 | 180 | 0.0 | 0.0 | 0.00 | 0.00 | 0.00 | 80 | 1002.3 |
| 20260504044850 | 47 | 180 | 0.0 | 0.0 | 0.00 | 0.00 | 0.00 | 80 | 1002.3 |
| 20260504044424 | 47 | 180 | 0.0 | 0.0 | 0.00 | 0.00 | 0.00 | 80 | 1002.2 |
| 20260504044348 | 47 | 180 | 0.0 | 0.0 | 0.00 | 0.00 | 0.00 | 80 | 1002.2 |
| 20260504043845 | 47 | 180 | 0.0 | 0.0 | 0.00 | 0.00 | 0.00 | 81 | 1002.2 |
| 20260504043446 | 47 | 45 | 0.0 | 0.0 | 0.00 | 0.00 | 0.00 | 81 | 1002.3 |
| 20260504043343 | 47 | 45 | 0.0 | 0.0 | 0.00 | 0.00 | 0.00 | 81 | 1002.3 |
| 20260504042841 | 47 | 135 | 0.9 | 0.9 | 0.00 | 0.00 | 0.00 | 80 | 1002.3 |
| 20260504042339 | 47 | 270 | 0.0 | 0.9 | 0.00 | 0.00 | 0.00 | 80 | 1002.2 |
| 20260504041836 | 47 | 270 | 0.9 | 0.9 | 0.00 | 0.00 | 0.00 | 80 | 1002.2 |
| 20260504041414 | 47 | 157 | 0.0 | 0.0 | 0.00 | 0.00 | 0.00 | 80 | 1002.2 |
| 20260504041335 | 47 | 157 | 0.0 | 0.0 | 0.00 | 0.00 | 0.00 | 80 | 1002.2 |
| 20260504040832 | 47 | 180 | 0.0 | 1.7 | 0.00 | 0.00 | 0.00 | 80 | 1002.3 |
| 20260504040440 | 47 | 180 | 0.0 | 0.9 | 0.00 | 0.00 | 0.00 | 81 | 1002.2 |
| 20260504040330 | 47 | 180 | 0.0 | 0.9 | 0.00 | 0.00 | 0.00 | 81 | 1002.2 |
| 20260504035828 | 47 | 180 | 0.0 | 0.0 | 0.00 | 0.00 | 0.00 | 80 | 1002.3 |